Location: Little Chesterford
(52.0500°N, 0.1833°E)
Time: 11:46:57
(UTC+00:00)

Cosmos 2360 Rocket - Pass Details

Date: 26 September 2023
Orbit: 833 x 845 km, 71.0° (Epoch: 09 December)

Event Time Altitude Azimuth Distance (km) Brightness Sun altitude
Rises 19:05:19 0° 217° (SW) 3,377 5.6 -12.5°
Reaches altitude 10° 19:07:45 10° 219° (SW) 2,448 4.9 -12.8°
Maximum altitude 19:13:22 70° 303° (WNW) 895 2.5 -13.7°
Drops below altitude 10° 19:19:02 10° 28° (NNE) 2,472 4.5 -14.5°
Sets 19:21:30 0° 31° (NNE) 3,412 5.2 -14.9°
